When you browse on this site, cookies collect data to enhance your experience and personalize the content and advertising you see.
Visit our Privacy Policy to learn more. By continuing to use the site, you agree to this use of cookies and data.
  • In Latvia
  • List of Countries
  • For 7 days
  • Water Temperature
  • Weather Map
  • Weather Widgets
  • user-avatar
    Login

    Hourly Weather Kalgoorlie

    Today, 28 January, Tuesday

    Time Temperature Precipitation Wind Pressure Humidity
    00:00 +36°C° 0 mm 6 mps 727 mmHg 18%
    01:00 +35°C° 0 mm 6 mps 727 mmHg 19%
    02:00 +34°C° 0 mm 5 mps 726 mmHg 20%
    03:00 +33°C° 0 mm 4 mps 726 mmHg 21%
    04:00 +32°C° 0 mm 4 mps 727 mmHg 23%
    05:00 +31°C° 0 mm 3 mps 727 mmHg 24%
    06:00 +33°C° 0 mm 5 mps 727 mmHg 23%
    07:00 +35°C° 0 mm 6 mps 728 mmHg 21%
    08:00 +38°C° 0 mm 8 mps 728 mmHg 19%
    09:00 +40°C° 0 mm 8 mps 728 mmHg 17%
    10:00 +41°C° 0 mm 7 mps 728 mmHg 14%
    11:00 +44°C° 0 mm 7 mps 728 mmHg 12%
    12:00 +45°C° 0 mm 6 mps 728 mmHg 11%
    13:00 +46°C° 0 mm 5 mps 727 mmHg 10%
    14:00 +45°C° 0 mm 4 mps 726 mmHg 10%
    15:00 +45°C° 0 mm 4 mps 726 mmHg 9%
    16:00 +46°C° 0 mm 5 mps 726 mmHg 9%
    17:00 +46°C° 0 mm 5 mps 725 mmHg 9%
    18:00 +45°C° 0 mm 5 mps 725 mmHg 10%
    19:00 +42°C° 0 mm 5 mps 725 mmHg 10%
    20:00 +41°C° 0 mm 5 mps 725 mmHg 11%
    21:00 +40°C° 0 mm 6 mps 725 mmHg 11%
    22:00 +39°C° 0 mm 7 mps 725 mmHg 11%
    23:00 +38°C° 0 mm 7 mps 725 mmHg 11%

    Tomorrow, 29 January, Wednesday

    Time Temperature Precipitation Wind Pressure Humidity
    00:00 +36°C° 0 mm 7 mps 725 mmHg 11%
    01:00 +37°C° 0 mm 8 mps 724 mmHg 11%
    02:00 +35°C° 0 mm 8 mps 724 mmHg 11%
    03:00 +34°C° 0 mm 7 mps 724 mmHg 12%
    04:00 +33°C° 0 mm 6 mps 724 mmHg 12%
    05:00 +33°C° 0 mm 5 mps 724 mmHg 12%
    06:00 +34°C° 0 mm 5 mps 724 mmHg 11%
    07:00 +36°C° 0 mm 5 mps 725 mmHg 10%
    08:00 +39°C° 0 mm 5 mps 725 mmHg 9%
    09:00 +40°C° 0 mm 5 mps 725 mmHg 8%
    10:00 +42°C° 0 mm 5 mps 725 mmHg 7%
    11:00 +43°C° 0 mm 4 mps 724 mmHg 6%
    12:00 +44°C° 0 mm 3 mps 723 mmHg 6%
    13:00 +43°C° 0 mm 2 mps 722 mmHg 7%
    14:00 +44°C° 0 mm 1 mps 722 mmHg 7%
    15:00 +44°C° 0 mm 1 mps 721 mmHg 7%
    16:00 +44°C° 0 mm 1 mps 721 mmHg 7%
    17:00 +44°C° 0 mm 1 mps 721 mmHg 7%
    18:00 +43°C° 0 mm 2 mps 720 mmHg 7%
    19:00 +43°C° 0 mm 4 mps 720 mmHg 8%
    20:00 +41°C° 0 mm 5 mps 720 mmHg 8%
    21:00 +40°C° 0 mm 5 mps 720 mmHg 11%
    22:00 +37°C° 0 mm 5 mps 720 mmHg 14%
    23:00 +36°C° 0 mm 5 mps 720 mmHg 16%

    Day after tomorrow, 30 January, Thursday

    Time Temperature Precipitation Wind Pressure Humidity
    00:00 +34°C° 0 mm 5 mps 720 mmHg 22%
    01:00 +32°C° 0 mm 5 mps 719 mmHg 28%
    02:00 +29°C° 0 mm 5 mps 719 mmHg 34%
    03:00 +28°C° 0 mm 4 mps 719 mmHg 40%
    04:00 +27°C° 0 mm 4 mps 719 mmHg 45%
    05:00 +26°C° 0 mm 4 mps 719 mmHg 51%
    06:00 +27°C° 0 mm 4 mps 719 mmHg 49%
    07:00 +28°C° 0 mm 5 mps 720 mmHg 46%
    08:00 +29°C° 0 mm 5 mps 720 mmHg 44%
    09:00 +33°C° 0 mm 5 mps 720 mmHg 36%
    10:00 +35°C° 0 mm 5 mps 720 mmHg 28%
    11:00 +39°C° 0 mm 6 mps 720 mmHg 20%
    12:00 +40°C° 0 mm 7 mps 720 mmHg 17%
    13:00 +41°C° 0 mm 8 mps 719 mmHg 14%
    14:00 +43°C° 0 mm 10 mps 719 mmHg 11%
    15:00 +42°C° 0 mm 10 mps 719 mmHg 12%
    16:00 +42°C° 0 mm 10 mps 719 mmHg 13%
    17:00 +40°C° 0 mm 10 mps 719 mmHg 13%
    18:00 +37°C° 0 mm 10 mps 720 mmHg 22%
    19:00 +33°C° 0 mm 11 mps 720 mmHg 31%
    20:00 +31°C° 0 mm 11 mps 721 mmHg 39%
    21:00 +27°C° 0 mm 11 mps 721 mmHg 45%
    22:00 +23°C° 0 mm 11 mps 722 mmHg 52%
    23:00 +21°C° 0 mm 10 mps 722 mmHg 58%

    31 January, Friday

    Time Temperature Precipitation Wind Pressure Humidity
    00:00 +19°C° 0 mm 9 mps 722 mmHg 59%
    01:00 +18°C° 0 mm 9 mps 722 mmHg 59%
    02:00 +17°C° 0 mm 8 mps 722 mmHg 60%
    03:00 +16°C° 0 mm 8 mps 723 mmHg 62%
    04:00 +15°C° 0 mm 7 mps 723 mmHg 64%
    05:00 +14°C° 0 mm 7 mps 724 mmHg 66%
    06:00 +15°C° 0 mm 7 mps 724 mmHg 62%
    07:00 +16°C° 0 mm 7 mps 725 mmHg 57%
    08:00 +16°C° 0 mm 6 mps 726 mmHg 53%
    09:00 +19°C° 0 mm 6 mps 726 mmHg 46%
    10:00 +21°C° 0 mm 5 mps 726 mmHg 38%
    11:00 +23°C° 0 mm 5 mps 726 mmHg 31%
    12:00 +25°C° 0 mm 4 mps 726 mmHg 27%
    13:00 +26°C° 0 mm 4 mps 725 mmHg 23%
    14:00 +28°C° 0 mm 3 mps 725 mmHg 20%
    15:00 +28°C° 0 mm 3 mps 725 mmHg 19%
    16:00 +29°C° 0 mm 3 mps 725 mmHg 17%
    17:00 +30°C° 0 mm 4 mps 726 mmHg 16%
    18:00 +29°C° 0 mm 4 mps 726 mmHg 17%
    19:00 +27°C° 0 mm 4 mps 727 mmHg 18%
    20:00 +26°C° 0 mm 5 mps 728 mmHg 19%
    21:00 +23°C° 0 mm 7 mps 728 mmHg 27%
    22:00 +21°C° 0 mm 9 mps 729 mmHg 35%
    23:00 +18°C° 0 mm 10 mps 729 mmHg 43%

    1 February, Saturday

    Time Temperature Precipitation Wind Pressure Humidity
    00:00 +17°C° 0 mm 10 mps 729 mmHg 45%
    01:00 +16°C° 0 mm 9 mps 729 mmHg 48%
    02:00 +15°C° 0 mm 9 mps 729 mmHg 50%
    03:00 +15°C° 0 mm 8 mps 730 mmHg 53%
    04:00 +14°C° 0 mm 7 mps 730 mmHg 56%
    05:00 +14°C° 0 mm 7 mps 731 mmHg 59%
    06:00 +15°C° 0 mm 7 mps 731 mmHg 56%
    07:00 +16°C° 0 mm 7 mps 732 mmHg 52%
    08:00 +17°C° 0 mm 6 mps 732 mmHg 49%
    09:00 +20°C° 0 mm 6 mps 732 mmHg 43%
    10:00 +22°C° 0 mm 6 mps 732 mmHg 37%
    11:00 +25°C° 0 mm 5 mps 732 mmHg 31%
    12:00 +26°C° 0 mm 5 mps 731 mmHg 28%
    13:00 +27°C° 0 mm 5 mps 731 mmHg 25%
    14:00 +29°C° 0 mm 4 mps 730 mmHg 22%
    15:00 +29°C° 0 mm 5 mps 730 mmHg 21%
    16:00 +30°C° 0 mm 5 mps 730 mmHg 20%
    17:00 +30°C° 0 mm 5 mps 730 mmHg 19%
    18:00 +29°C° 0 mm 4 mps 730 mmHg 20%
    19:00 +28°C° 0 mm 4 mps 731 mmHg 21%
    20:00 +27°C° 0 mm 3 mps 731 mmHg 22%
    21:00 +26°C° 0 mm 5 mps 732 mmHg 26%
    22:00 +24°C° 0 mm 7 mps 732 mmHg 31%
    23:00 +23°C° 0 mm 9 mps 732 mmHg 35%

    2 February, Sunday

    Time Temperature Precipitation Wind Pressure Humidity
    00:00 +21°C° 0 mm 9 mps 732 mmHg 42%
    01:00 +18°C° 0 mm 10 mps 732 mmHg 50%
    02:00 +17°C° 0 mm 10 mps 732 mmHg 57%
    03:00 +16°C° 0 mm 9 mps 732 mmHg 60%
    04:00 +16°C° 0 mm 8 mps 732 mmHg 62%
    05:00 +15°C° 0 mm 7 mps 732 mmHg 65%
    06:00 +16°C° 0 mm 7 mps 733 mmHg 61%
    07:00 +18°C° 0 mm 7 mps 733 mmHg 57%
    08:00 +20°C° 0 mm 7 mps 734 mmHg 53%
    09:00 +22°C° 0 mm 6 mps 733 mmHg 46%
    10:00 +24°C° 0 mm 6 mps 733 mmHg 39%
    11:00 +27°C° 0 mm 6 mps 733 mmHg 32%
    12:00 +28°C° 0 mm 5 mps 732 mmHg 29%
    13:00 +30°C° 0 mm 5 mps 732 mmHg 26%
    14:00 +32°C° 0 mm 4 mps 731 mmHg 22%
    15:00 +32°C° 0 mm 5 mps 731 mmHg 22%
    16:00 +32°C° 0 mm 5 mps 731 mmHg 21%
    17:00 +33°C° 0 mm 5 mps 730 mmHg 20%
    18:00 +32°C° 0 mm 4 mps 731 mmHg 21%
    19:00 +29°C° 0 mm 4 mps 731 mmHg 22%
    20:00 +28°C° 0 mm 3 mps 732 mmHg 23%
    21:00 +27°C° 0 mm 4 mps 732 mmHg 26%
    22:00 +26°C° 0 mm 5 mps 732 mmHg 29%
    23:00 +24°C° 0 mm 7 mps 732 mmHg 32%
    Show more